TimeCST,TemperatureF,Dew PointF,Humidity,Sea Level PressureIn,VisibilityMPH,Wind Direction,Wind SpeedMPH,Gust SpeedMPH,PrecipitationIn,Events,Conditions,WindDirDegrees,DateUTC
12:15 AM,-2.2,-7.2,79,30.19,10.0,West,4.6,-,N/A,,Clear,280,2014-01-22 06:15:00
12:35 AM,-4.0,-8.7,80,30.18,10.0,WSW,3.5,-,N/A,,Scattered Clouds,250,2014-01-22 06:35:00
12:55 AM,-3.1,-8.0,80,30.17,10.0,SW,3.5,-,N/A,,Mostly Cloudy,220,2014-01-22 06:55:00
1:15 AM,-2.9,-7.2,82,30.16,10.0,Calm,Calm,-,N/A,,Overcast,0,2014-01-22 07:15:00
1:35 AM,-0.8,-6.2,78,30.16,10.0,Calm,Calm,-,N/A,,Overcast,0,2014-01-22 07:35:00
1:55 AM,0.1,-5.3,78,30.14,10.0,SW,3.5,-,N/A,,Overcast,220,2014-01-22 07:55:00
2:15 AM,0.5,-5.3,77,30.13,10.0,SSW,4.6,-,N/A,,Overcast,200,2014-01-22 08:15:00
2:35 AM,0.3,-5.4,77,30.12,10.0,SSW,3.5,-,N/A,,Overcast,200,2014-01-22 08:35:00
2:55 AM,0.9,-5.1,76,30.11,10.0,SSW,5.8,-,N/A,,Overcast,200,2014-01-22 08:55:00
3:15 AM,0.5,-5.1,77,30.11,10.0,SSW,4.6,-,N/A,,Mostly Cloudy,210,2014-01-22 09:15:00
3:55 AM,1.0,-3.6,81,30.09,10.0,SW,5.8,-,N/A,,Overcast,220,2014-01-22 09:55:00
4:15 AM,2.3,-2.6,80,30.07,10.0,SSW,5.8,-,N/A,,Overcast,210,2014-01-22 10:15:00
4:35 AM,2.7,-2.4,79,30.06,10.0,South,8.1,-,N/A,,Overcast,190,2014-01-22 10:35:00
4:55 AM,2.8,-3.3,76,30.06,10.0,SSW,6.9,-,N/A,,Overcast,200,2014-01-22 10:55:00
5:15 AM,3.2,-2.2,78,30.05,10.0,South,8.1,-,N/A,,Overcast,190,2014-01-22 11:15:00
5:35 AM,3.6,-2.2,77,30.03,10.0,South,9.2,-,N/A,,Overcast,180,2014-01-22 11:35:00
5:55 AM,3.9,-2.2,76,30.03,10.0,South,8.1,-,N/A,,Overcast,180,2014-01-22 11:55:00
6:15 AM,4.1,-2.2,75,30.04,10.0,South,8.1,-,N/A,,Overcast,190,2014-01-22 12:15:00
6:35 AM,4.5,-2.9,72,30.02,10.0,South,9.2,-,N/A,,Overcast,180,2014-01-22 12:35:00
6:55 AM,4.6,-2.4,73,30.03,10.0,South,9.2,-,N/A,,Overcast,190,2014-01-22 12:55:00
7:15 AM,4.8,-2.4,72,30.03,10.0,South,9.2,-,N/A,,Overcast,190,2014-01-22 13:15:00
7:35 AM,5.0,-2.2,72,30.03,10.0,SSW,9.2,-,N/A,,Overcast,200,2014-01-22 13:35:00
7:55 AM,5.5,-1.5,73,30.01,10.0,South,11.5,-,N/A,,Overcast,180,2014-01-22 13:55:00
8:15 AM,5.9,-1.1,73,30.01,10.0,SSW,11.5,-,N/A,,Overcast,200,2014-01-22 14:15:00
8:35 AM,6.3,-0.4,74,30.01,10.0,South,9.2,-,N/A,,Overcast,190,2014-01-22 14:35:00
8:55 AM,6.6,0.3,75,30.01,3.0,South,10.4,-,N/A,Snow,Light Snow,190,2014-01-22 14:55:00
9:15 AM,7.0,1.4,78,30.01,2.5,SSW,9.2,-,N/A,Snow,Light Snow,200,2014-01-22 15:15:00
9:35 AM,7.7,2.3,79,30.01,7.0,SSW,8.1,-,N/A,Snow,Light Snow,200,2014-01-22 15:35:00
9:55 AM,8.4,3.2,79,30.00,4.0,SSW,9.2,-,N/A,Snow,Light Snow,200,2014-01-22 15:55:00
10:15 AM,9.1,3.9,79,29.99,2.5,SSW,13.8,-,N/A,Snow,Light Snow,210,2014-01-22 16:15:00
10:35 AM,9.5,4.6,81,29.99,2.0,SW,10.4,-,N/A,Snow,Light Snow,220,2014-01-22 16:35:00
10:55 AM,10.0,4.6,79,29.97,2.0,SW,13.8,-,N/A,Snow,Light Snow,220,2014-01-22 16:55:00
11:15 AM,10.4,5.0,79,29.96,3.0,SW,11.5,-,N/A,Snow,Light Snow,220,2014-01-22 17:15:00
11:35 AM,11.1,5.7,79,29.94,3.0,SSW,11.5,-,N/A,Snow,Light Snow,210,2014-01-22 17:35:00
11:55 AM,11.7,6.3,79,29.92,4.0,SW,13.8,-,N/A,Snow,Light Snow,220,2014-01-22 17:55:00
12:15 PM,12.7,6.8,77,29.91,4.0,SW,13.8,-,N/A,Snow,Light Snow,220,2014-01-22 18:15:00
12:35 PM,13.3,7.2,77,29.91,7.0,WSW,16.1,-,N/A,Snow,Light Snow,250,2014-01-22 18:35:00
12:55 PM,13.6,7.7,77,29.91,4.0,WSW,15.0,20.7,N/A,Snow,Light Snow,250,2014-01-22 18:55:00
1:15 PM,14.0,7.9,77,29.91,3.0,West,16.1,21.9,N/A,Snow,Light Snow,260,2014-01-22 19:15:00
1:35 PM,14.2,8.4,78,29.90,3.0,West,12.7,18.4,N/A,Snow,Light Snow,270,2014-01-22 19:35:00
1:55 PM,14.9,8.8,77,29.89,7.0,West,12.7,-,N/A,Snow,Light Snow,270,2014-01-22 19:55:00
2:15 PM,14.7,8.4,76,29.88,3.0,West,13.8,-,N/A,Snow,Light Snow,270,2014-01-22 20:15:00
2:35 PM,15.3,9.7,79,29.88,3.0,West,11.5,17.3,N/A,Snow,Light Snow,270,2014-01-22 20:35:00
2:55 PM,15.3,9.7,79,29.89,2.5,West,15.0,-,N/A,Snow,Light Snow,270,2014-01-22 20:55:00
3:15 PM,15.6,10.4,80,29.90,3.0,West,17.3,-,N/A,Snow,Light Snow,270,2014-01-22 21:15:00
3:35 PM,15.3,10.4,81,29.91,1.2,WNW,17.3,20.7,N/A,Snow,Light Snow,290,2014-01-22 21:35:00
3:55 PM,15.1,10.2,81,29.92,4.0,West,15.0,20.7,N/A,Snow,Light Snow,280,2014-01-22 21:55:00
4:15 PM,14.4,8.2,77,29.93,1.5,WNW,25.3,31.1,N/A,Snow,Light Snow,290,2014-01-22 22:15:00
4:35 PM,13.5,9.3,84,29.95,0.8,WNW,18.4,-,N/A,Snow,Light Snow,290,2014-01-22 22:35:00
4:55 PM,12.4,6.8,78,29.96,1.8,NW,20.7,28.8,N/A,Snow,Light Snow,310,2014-01-22 22:55:00
5:15 PM,11.3,5.9,79,29.97,5.0,WNW,20.7,28.8,N/A,Snow,Light Snow,300,2014-01-22 23:15:00
5:35 PM,10.4,3.2,73,29.99,5.0,WNW,17.3,25.3,N/A,,Haze,300,2014-01-22 23:35:00
5:55 PM,9.9,2.3,71,30.01,7.0,WNW,18.4,25.3,N/A,,Clear,300,2014-01-22 23:55:00
6:15 PM,9.5,2.3,73,30.01,7.0,NW,17.3,21.9,N/A,,Clear,310,2014-01-23 00:15:00
6:35 PM,8.8,1.9,74,30.03,10.0,WNW,13.8,-,N/A,,Scattered Clouds,300,2014-01-23 00:35:00
6:55 PM,8.2,1.8,75,30.03,10.0,NW,12.7,-,N/A,,Scattered Clouds,310,2014-01-23 00:55:00
7:15 PM,8.4,2.3,76,30.04,10.0,NW,12.7,20.7,N/A,,Mostly Cloudy,320,2014-01-23 01:15:00
7:35 PM,8.4,0.1,69,30.05,10.0,NNW,11.5,-,N/A,,Mostly Cloudy,330,2014-01-23 01:35:00
7:55 PM,7.9,-1.3,66,30.07,7.0,NNW,16.1,-,N/A,,Mostly Cloudy,340,2014-01-23 01:55:00
8:15 PM,7.3,-2.6,64,30.07,10.0,NNW,17.3,20.7,N/A,,Mostly Cloudy,340,2014-01-23 02:15:00
8:35 PM,6.4,-5.8,57,30.09,10.0,NNW,13.8,-,N/A,,Mostly Cloudy,340,2014-01-23 02:35:00
8:55 PM,5.9,-6.3,57,30.10,10.0,NNW,16.1,21.9,N/A,,Mostly Cloudy,340,2014-01-23 02:55:00
9:15 PM,5.0,-6.7,59,30.10,10.0,NNW,12.7,-,N/A,,Scattered Clouds,340,2014-01-23 03:15:00
9:35 PM,4.8,-6.2,61,30.11,10.0,NNW,13.8,-,N/A,,Scattered Clouds,340,2014-01-23 03:35:00
9:55 PM,4.1,-6.2,63,30.12,10.0,NNW,16.1,26.5,N/A,,Scattered Clouds,330,2014-01-23 03:55:00
10:15 PM,3.2,-6.0,66,30.13,10.0,NNW,16.1,19.6,N/A,,Scattered Clouds,330,2014-01-23 04:15:00
10:35 PM,2.3,-8.0,62,30.14,10.0,NNW,20.7,24.2,N/A,,Scattered Clouds,330,2014-01-23 04:35:00
10:55 PM,1.6,-8.3,63,30.17,10.0,NNW,13.8,21.9,N/A,,Clear,330,2014-01-23 04:55:00
11:15 PM,1.2,-10.1,59,30.17,10.0,NNW,18.4,23.0,N/A,,Clear,330,2014-01-23 05:15:00
11:35 PM,0.9,-10.3,59,30.18,10.0,NNW,18.4,24.2,N/A,,Clear,330,2014-01-23 05:35:00
11:55 PM,0.3,-10.8,59,30.18,10.0,NNW,23.0,28.8,N/A,,Clear,330,2014-01-23 05:55:00